DL9GRB-13 Weather Reports


time (UTC)temp
F
wind
direction
speed
knots
gust
knots
rain 1hr
in
rain 24hr
in
rain mn
in
humidity
%
barometer
mb
20260506160108 54 88 13.0 15.6 0.00 0.00 0.00 68 1007.8
20260506155808 53 82 10.4 26.9 0.00 0.00 0.00 72 1007.9
20260506155508 53 276 6.1 15.6 0.00 0.00 0.00 77 1007.9
20260506155208 53 265 7.8 20.0 0.00 0.00 0.00 77 1008.1
20260506154908 53 54 7.8 18.2 0.00 0.00 0.00 76 1008.0
20260506154608 53 21 13.9 21.7 0.00 0.00 0.00 75 1008.0
20260506154308 54 350 11.3 16.5 0.00 0.00 0.00 74 1008.0
20260506154008 54 37 15.6 19.1 0.00 0.00 0.00 75 1008.0
20260506153708 54 14 4.3 20.9 0.00 0.00 0.00 75 1008.1
20260506153408 54 47 10.4 21.7 0.00 0.00 0.00 75 1008.1
20260506153108 54 79 10.4 20.0 0.00 0.00 0.00 74 1008.3
20260506152808 55 26 9.6 18.2 0.00 0.00 0.00 74 1008.0
20260506152508 55 28 9.6 15.6 0.00 0.00 0.00 74 1007.9
20260506152208 54 87 7.0 18.2 0.00 0.00 0.00 74 1008.2
20260506151908 55 77 20.0 31.3 0.00 0.00 0.00 74 1008.2
20260506151608 55 55 10.4 15.6 0.00 0.00 0.00 75 1008.1
20260506151308 55 87 7.0 18.2 0.00 0.00 0.00 75 1008.2
20260506151008 55 4 13.0 23.5 0.00 0.00 0.00 74 1008.1
20260506150708 55 358 8.7 20.0 0.00 0.00 0.00 74 1008.2
20260506150408 55 274 12.2 19.1 0.00 0.00 0.00 73 1008.2
20260506150108 55 24 9.6 24.3 0.00 0.00 0.00 73 1008.1
20260506145808 55 333 14.8 17.4 0.00 0.00 0.00 70 1008.4
20260506145508 55 50 5.2 19.1 0.00 0.00 0.00 70 1008.3
20260506145208 55 358 15.6 23.5 0.00 0.00 0.00 70 1008.2
20260506144908 55 111 14.8 15.6 0.00 0.00 0.00 71 1008.1
20260506144608 55 2 7.0 17.4 0.00 0.00 0.00 72 1008.0
20260506144308 55 353 18.2 18.2 0.00 0.00 0.00 71 1007.9
20260506144008 55 5 13.0 16.5 0.00 0.00 0.00 71 1008.1
20260506143708 55 65 14.8 20.9 0.00 0.00 0.00 71 1008.1
20260506143408 55 83 6.1 17.4 0.00 0.00 0.00 71 1008.0
20260506143108 55 319 4.3 16.5 0.00 0.00 0.00 71 1008.0
20260506142808 55 112 6.1 14.8 0.00 0.00 0.00 72 1008.2
20260506142508 55 37 13.9 23.5 0.00 0.00 0.00 71 1008.3
20260506142208 54 33 10.4 19.1 0.00 0.00 0.00 72 1008.0
20260506141908 54 49 5.2 20.0 0.00 0.00 0.00 72 1008.1
20260506141608 54 337 10.4 23.5 0.00 0.00 0.00 71 1008.1
20260506141308 54 99 13.0 17.4 0.00 0.00 0.00 71 1008.0
20260506141008 54 215 7.8 21.7 0.00 0.00 0.00 70 1008.0
20260506140708 55 353 7.8 30.4 0.00 0.00 0.00 71 1007.9
20260506140408 55 43 5.2 18.2 0.00 0.00 0.00 70 1008.1
20260506140108 55 21 7.0 15.6 0.00 0.00 0.00 70 1008.1
20260506135808 55 29 7.8 15.6 0.00 0.00 0.00 70 1008.1
20260506135508 55 95 9.6 16.5 0.00 0.00 0.00 70 1008.1
20260506135208 55 12 5.2 15.6 0.00 0.00 0.00 70 1008.1
20260506134908 55 81 15.6 21.7 0.00 0.00 0.00 70 1008.1
20260506134608 55 78 8.7 14.8 0.00 0.00 0.00 70 1008.2
20260506134308 55 72 8.7 25.2 0.00 0.00 0.00 69 1007.9
20260506134008 55 100 0.0 21.7 0.00 0.00 0.00 69 1008.0
20260506133708 55 83 8.7 23.5 0.00 0.00 0.00 69 1007.9
20260506133408 55 108 7.0 23.5 0.00 0.00 0.00 70 1008.0
20260506133108 55 39 9.6 16.5 0.00 0.00 0.00 70 1007.9
20260506132808 55 3 11.3 24.3 0.00 0.00 0.00 69 1008.2
20260506132508 55 75 9.6 13.9 0.00 0.00 0.00 70 1007.9
20260506132208 55 30 3.5 12.2 0.00 0.00 0.00 70 1008.0
20260506131908 55 97 5.2 23.5 0.00 0.00 0.00 71 1007.9
20260506131608 55 61 6.1 34.8 0.00 0.00 0.00 70 1008.0
20260506131308 55 75 8.7 18.2 0.00 0.00 0.00 71 1008.1
20260506131008 55 31 17.4 18.2 0.00 0.00 0.00 71 1008.2
20260506130708 56 72 4.3 29.5 0.00 0.00 0.00 70 1007.9
20260506130408 56 332 10.4 23.5 0.00 0.00 0.00 71 1008.1
20260506130108 55 34 7.8 19.1 0.00 0.00 0.00 71 1008.0
20260506125808 56 82 13.0 17.4 0.00 0.00 0.00 71 1007.9
20260506125508 56 355 5.2 18.2 0.00 0.00 0.00 72 1008.0
20260506125208 56 62 13.0 20.0 0.00 0.00 0.00 70 1007.8
20260506124908 56 295 7.8 20.0 0.00 0.00 0.00 70 1008.0
20260506124608 56 74 6.1 18.2 0.00 0.00 0.00 71 1007.9
20260506124308 56 60 5.2 15.6 0.00 0.00 0.00 71 1007.8
20260506124008 56 102 13.9 16.5 0.00 0.00 0.00 72 1008.0
20260506123708 55 107 13.9 17.4 0.00 0.00 0.00 73 1007.9
20260506123408 55 15 7.0 28.7 0.00 0.00 0.00 73 1007.8
20260506123108 55 84 9.6 23.5 0.00 0.00 0.00 72 1007.8
20260506122808 55 109 9.6 13.0 0.00 0.00 0.00 71 1007.8
20260506122508 55 30 12.2 26.9 0.00 0.00 0.00 69 1007.8
20260506122208 55 59 8.7 21.7 0.00 0.00 0.00 69 1007.7
20260506121908 56 3 5.2 20.0 0.00 0.00 0.00 69 1007.8
20260506121608 55 127 4.3 21.7 0.00 0.00 0.00 71 1007.7
20260506121308 55 69 14.8 16.5 0.00 0.00 0.00 73 1007.4
20260506121008 55 321 15.6 16.5 0.00 0.00 0.00 72 1007.5
20260506120708 55 327 7.8 16.5 0.00 0.00 0.00 72 1007.4
20260506120408 55 341 16.5 24.3 0.00 0.00 0.00 72 1007.5
20260506120108 55 41 9.6 30.4 0.00 0.00 0.00 71 1007.5
20260506115808 55 346 9.6 26.9 0.00 0.00 0.00 71 1007.5
20260506115508 55 84 19.1 37.4 0.00 0.00 0.00 71 1007.6
20260506115208 55 327 6.1 26.9 0.00 0.00 0.00 72 1007.4
20260506114908 55 119 0.0 26.9 0.00 0.00 0.00 71 1007.5
20260506114608 56 84 7.8 20.0 0.00 0.00 0.00 70 1007.4
20260506114308 55 297 7.8 14.8 0.00 0.00 0.00 71 1007.5
20260506114008 55 112 4.3 11.3 0.00 0.00 0.00 72 1007.3
20260506113708 55 350 10.4 22.6 0.00 0.00 0.00 70 1007.5
20260506113408 55 82 7.0 23.5 0.00 0.00 0.00 71 1007.4
20260506113108 56 63 13.0 13.0 0.00 0.00 0.00 70 1007.6
20260506112808 55 89 0.0 16.5 0.00 0.00 0.00 71 1007.4
20260506112508 55 170 10.4 20.0 0.00 0.00 0.00 70 1007.4
20260506112208 56 2 13.9 22.6 0.00 0.00 0.00 70 1007.6
20260506111908 55 93 14.8 17.4 0.00 0.00 0.00 70 1007.4
20260506111608 55 92 10.4 13.9 0.00 0.00 0.00 70 1007.5
20260506111308 55 100 4.3 14.8 0.00 0.00 0.00 70 1007.3
20260506111008 55 62 7.0 19.1 0.00 0.00 0.00 70 1007.3
20260506110708 55 81 0.0 20.0 0.00 0.00 0.00 69 1007.1
20260506110408 55 29 6.1 19.1 0.00 0.00 0.00 69 1007.3
20260506110108 55 108 15.6 19.1 0.00 0.00 0.00 69 1007.4
20260506105808 55 101 3.5 22.6 0.00 0.00 0.00 70 1007.4
20260506105508 55 101 7.0 16.5 0.00 0.00 0.00 69 1007.3
20260506105208 55 88 7.8 13.9 0.00 0.00 0.00 69 1007.5
20260506104908 54 65 9.6 20.0 0.00 0.00 0.00 71 1007.7
20260506104608 54 347 7.8 13.0 0.00 0.00 0.00 71 1007.4
20260506104308 54 105 13.9 17.4 0.00 0.00 0.00 71 1007.3
20260506104008 54 97 14.8 25.2 0.00 0.00 0.00 70 1007.5
20260506103708 54 103 13.0 13.0 0.00 0.00 0.00 71 1007.3
20260506103408 54 89 17.4 17.4 0.00 0.00 0.00 70 1007.6
20260506103108 54 8 13.0 13.0 0.00 0.00 0.00 71 1007.5
20260506102808 54 83 10.4 17.4 0.00 0.00 0.00 70 1007.5
20260506102508 54 3 10.4 13.0 0.00 0.00 0.00 70 1007.4
20260506102208 54 19 7.8 16.5 0.00 0.00 0.00 70 1007.4
20260506101908 53 120 8.7 13.0 0.00 0.00 0.00 71 1007.5
20260506101608 53 119 12.2 30.4 0.00 0.00 0.00 71 1007.5
20260506101308 53 20 10.4 12.2 0.00 0.00 0.00 71 1007.5
20260506101008 53 37 10.4 17.4 0.00 0.00 0.00 71 1007.5
20260506100708 53 67 8.7 14.8 0.00 0.00 0.00 69 1007.5
20260506100408 53 70 5.2 13.9 0.00 0.00 0.00 69 1007.5
20260506100108 53 80 11.3 15.6 0.00 0.00 0.00 70 1007.5
20260506095808 52 4 7.8 19.1 0.00 0.00 0.00 69 1007.3
20260506095508 52 123 4.3 12.2 0.00 0.00 0.00 70 1007.5
20260506095208 52 77 9.6 19.1 0.00 0.00 0.00 70 1007.5
20260506094908 52 79 13.9 15.6 0.00 0.00 0.00 70 1007.3
20260506094608 52 93 14.8 30.4 0.00 0.00 0.00 70 1007.6
20260506094308 52 76 6.1 11.3 0.00 0.00 0.00 70 1007.5
20260506094008 52 75 23.5 33.9 0.00 0.00 0.00 70 1007.4
20260506093708 52 110 13.9 27.8 0.00 0.00 0.00 70 1007.6
20260506093408 52 78 11.3 16.5 0.00 0.00 0.00 69 1007.4
20260506093108 52 117 0.0 16.5 0.00 0.00 0.00 70 1007.2
20260506092808 52 173 0.0 26.9 0.00 0.00 0.00 69 1007.4
20260506092508 52 106 21.7 23.5 0.00 0.00 0.00 69 1007.4
20260506092208 52 343 9.6 16.5 0.00 0.00 0.00 69 1007.2
20260506091908 52 16 12.2 28.7 0.00 0.00 0.00 69 1007.4
20260506091608 52 106 9.6 24.3 0.00 0.00 0.00 69 1007.6
20260506091308 52 82 13.0 20.0 0.00 0.00 0.00 68 1007.3
20260506091008 51 98 0.0 8.7 0.00 0.00 0.00 70 1007.3
20260506090708 51 81 4.3 13.9 0.00 0.00 0.00 70 1007.5
20260506090408 51 301 10.4 12.2 0.00 0.00 0.00 70 1007.3
20260506090108 51 13 7.8 14.8 0.00 0.00 0.00 70 1007.5
20260506085808 51 14 13.0 17.4 0.00 0.00 0.00 69 1007.6
20260506085508 51 36 19.1 23.5 0.00 0.00 0.00 68 1007.5
20260506085208 51 356 12.2 16.5 0.00 0.00 0.00 69 1007.5
20260506084908 51 101 14.8 19.1 0.00 0.00 0.00 69 1007.5
20260506084608 51 324 13.9 15.6 0.00 0.00 0.00 69 1007.5
20260506084308 51 21 7.8 26.9 0.00 0.00 0.00 69 1007.4
20260506084008 51 4 13.9 17.4 0.00 0.00 0.00 69 1007.4
20260506083708 51 78 12.2 17.4 0.00 0.00 0.00 71 1007.2
20260506083408 51 293 9.6 23.5 0.00 0.00 0.00 71 1007.2
20260506083108 51 104 10.4 19.1 0.00 0.00 0.00 71 1007.4
20260506082808 51 94 15.6 15.6 0.00 0.00 0.00 71 1007.4
20260506082508 51 60 5.2 17.4 0.00 0.00 0.00 71 1007.4
20260506082208 51 37 13.0 20.0 0.00 0.00 0.00 71 1007.4
20260506081908 51 33 12.2 19.1 0.00 0.00 0.00 71 1007.4
20260506081608 51 74 8.7 23.5 0.00 0.00 0.00 71 1007.3
20260506081308 51 97 18.2 19.1 0.00 0.00 0.00 70 1007.4
20260506081008 51 16 11.3 13.0 0.00 0.00 0.00 71 1007.3
20260506080708 51 353 7.0 20.9 0.00 0.00 0.00 71 1007.1
20260506080408 51 45 9.6 20.9 0.00 0.00 0.00 70 1007.3
20260506080108 51 7 15.6 16.5 0.00 0.00 0.00 70 1007.3
20260506073408 51 49 7.0 13.9 0.00 0.00 0.00 68 1007.3
20260506073108 51 4 9.6 18.2 0.00 0.00 0.00 67 1007.2
20260506072808 51 88 9.6 13.0 0.00 0.00 0.00 68 1007.2
20260506072508 51 27 6.1 17.4 0.00 0.00 0.00 67 1007.5
20260506072208 51 297 13.9 13.9 0.00 0.00 0.00 67 1007.4
20260506071908 51 298 0.0 10.4 0.00 0.00 0.00 67 1007.2
20260506071608 50 71 7.0 9.6 0.00 0.00 0.00 67 1007.2
20260506071308 50 357 9.6 20.9 0.00 0.00 0.00 67 1007.1
20260506071008 50 339 9.6 17.4 0.00 0.00 0.00 67 1007.3
20260506070708 50 3 8.7 23.5 0.00 0.00 0.00 67 1007.1
20260506070408 50 107 6.1 22.6 0.00 0.00 0.00 67 1007.2
20260506070108 50 283 9.6 14.8 0.00 0.00 0.00 67 1007.4
20260506062508 50 91 15.6 18.2 0.00 0.00 0.00 68 1007.1
20260506062208 50 39 5.2 10.4 0.00 0.00 0.00 68 1007.0
20260506061908 50 82 5.2 20.0 0.00 0.00 0.00 68 1007.1
20260506061608 49 34 7.8 16.5 0.00 0.00 0.00 67 1007.1
20260506061308 49 65 3.5 17.4 0.00 0.00 0.00 67 1007.2
20260506061008 49 60 9.6 9.6 0.00 0.00 0.00 67 1007.3
20260506060708 49 87 7.8 16.5 0.00 0.00 0.00 67 1007.2
20260506060408 49 59 7.0 12.2 0.00 0.00 0.00 67 1007.3
20260506060108 49 104 4.3 17.4 0.00 0.00 0.00 67 1007.1
20260506051308 48 39 0.0 13.0 0.00 0.00 0.00 67 1007.3
20260506051008 48 92 12.2 13.0 0.00 0.00 0.00 67 1007.5
20260506050708 48 57 7.0 8.7 0.00 0.00 0.00 67 1007.4
20260506050408 48 89 4.3 7.8 0.00 0.00 0.00 67 1007.5
20260506050108 48 53 8.7 13.0 0.00 0.00 0.00 66 1007.4
20260506044908 48 34 10.4 16.5 0.00 0.00 0.00 66 1007.6
20260506044608 48 62 7.8 20.0 0.00 0.00 0.00 66 1007.6
20260506044308 47 78 5.2 15.6 0.00 0.00 0.00 66 1007.4
20260506044008 47 289 12.2 15.6 0.00 0.00 0.00 66 1007.5
20260506043708 47 140 5.2 13.9 0.00 0.00 0.00 66 1007.5
20260506043408 47 17 4.3 13.0 0.00 0.00 0.00 66 1007.6
20260506043108 47 30 5.2 17.4 0.00 0.00 0.00 65 1007.5
20260506042808 47 60 0.0 20.9 0.00 0.00 0.00 65 1007.6
20260506042508 47 78 9.6 13.9 0.00 0.00 0.00 65 1007.5
20260506042208 47 55 9.6 13.0 0.00 0.00 0.00 65 1007.4
20260506041908 47 83 16.5 20.9 0.00 0.00 0.00 65 1007.6
20260506041608 47 75 16.5 16.5 0.00 0.00 0.00 65 1007.4
20260506041308 47 63 20.0 20.0 0.00 0.00 0.00 65 1007.3
20260506041008 47 7 7.8 14.8 0.00 0.00 0.00 65 1007.4
20260506040708 47 40 5.2 13.9 0.00 0.00 0.00 65 1007.4
20260506040408 47 53 18.2 20.0 0.00 0.00 0.00 65 1007.5
20260506040108 47 344 6.1 11.3 0.00 0.00 0.00 65 1007.4
20260506035808 47 64 0.0 10.4 0.00 0.00 0.00 65 1007.4
20260506035508 47 136 5.2 17.4 0.00 0.00 0.00 65 1007.6
20260506035208 47 85 13.0 13.0 0.00 0.00 0.00 66 1007.5
20260506034908 47 118 3.5 23.5 0.00 0.00 0.00 65 1007.5
20260506034608 47 95 6.1 12.2 0.00 0.00 0.00 65 1007.5
20260506034308 47 107 10.4 10.4 0.00 0.00 0.00 64 1007.5
20260506034008 47 167 8.7 12.2 0.00 0.00 0.00 64 1007.3
20260506033708 47 107 7.0 7.8 0.00 0.00 0.00 64 1007.4
20260506033408 47 72 5.2 12.2 0.00 0.00 0.00 64 1007.6
20260506033108 47 53 4.3 20.0 0.00 0.00 0.00 64 1007.6
20260506032808 47 103 0.0 10.4 0.00 0.00 0.00 63 1007.5
20260506032508 47 63 3.5 21.7 0.00 0.00 0.00 63 1007.6
20260506032208 47 75 12.2 20.0 0.00 0.00 0.00 63 1007.5
20260506031908 47 76 14.8 14.8 0.00 0.00 0.00 64 1007.7
20260506031608 47 77 12.2 16.5 0.00 0.00 0.00 63 1007.7
20260506031308 47 109 13.0 25.2 0.00 0.00 0.00 64 1007.6
20260506031008 47 330 0.0 13.9 0.00 0.00 0.00 65 1007.7
20260506030708 47 193 8.7 10.4 0.00 0.00 0.00 64 1007.6
20260506030408 47 62 4.3 13.9 0.00 0.00 0.00 65 1007.6
20260506030108 47 249 6.1 12.2 0.00 0.00 0.00 66 1007.7
20260506025808 47 93 13.0 15.6 0.00 0.00 0.00 65 1007.7
20260506025508 47 22 5.2 15.6 0.00 0.00 0.00 66 1007.6
20260506025208 46 70 14.8 14.8 0.00 0.00 0.00 66 1007.6
20260506024908 46 266 0.0 12.2 0.00 0.00 0.00 67 1007.7
20260506024608 46 75 8.7 16.5 0.00 0.00 0.00 67 1007.7
20260506024308 46 95 0.0 11.3 0.00 0.00 0.00 68 1007.7
20260506024008 46 31 6.1 12.2 0.00 0.00 0.00 70 1007.7
20260506023708 46 94 4.3 9.6 0.00 0.00 0.00 69 1007.7
20260506023408 46 358 7.0 13.9 0.00 0.00 0.00 69 1007.8
20260506023108 46 15 7.0 11.3 0.00 0.00 0.00 70 1007.7
20260506022808 46 83 6.1 10.4 0.00 0.00 0.00 70 1007.7
20260506022508 45 68 9.6 13.0 0.00 0.00 0.00 71 1007.9
20260506022208 44 295 0.0 13.9 0.00 0.00 0.00 72 1007.7
20260506021908 44 80 4.3 13.9 0.00 0.00 0.00 73 1007.6
20260506021608 44 108 4.3 9.6 0.00 0.00 0.00 75 1007.9
20260506021308 43 68 5.2 11.3 0.00 0.00 0.00 77 1008.1
20260506021008 42 36 0.0 7.0 0.00 0.00 0.00 82 1008.1
20260506020708 41 62 3.5 8.7 0.00 0.00 0.00 87 1008.1
20260506020408 40 35 0.0 5.2 0.00 0.00 0.00 92 1008.0
20260506020108 39 351 0.0 7.8 0.00 0.00 0.00 94 1008.1
20260506015808 39 103 7.0 7.0 0.00 0.00 0.00 94 1008.0
20260506015508 39 106 0.0 7.0 0.00 0.00 0.00 94 1008.1
20260506015208 39 38 5.2 7.8 0.00 0.00 0.00 94 1008.3
20260506014908 39 81 4.3 7.0 0.00 0.00 0.00 94 1008.1
20260506014608 38 63 0.0 5.2 0.00 0.00 0.00 94 1008.2
20260506014308 38 119 0.0 8.7 0.00 0.00 0.00 94 1008.1
20260506014008 38 115 4.3 7.8 0.00 0.00 0.00 94 1008.1
20260506013708 38 48 3.5 5.2 0.00 0.00 0.00 94 1008.1
20260506013408 38 50 0.0 5.2 0.00 0.00 0.00 94 1008.4
20260506013108 38 43 3.5 5.2 0.00 0.00 0.00 94 1008.1
20260506012808 38 103 4.3 4.3 0.00 0.00 0.00 94 1008.4
20260506012508 38 73 0.0 7.0 0.00 0.00 0.00 94 1008.4
20260506012208 38 87 3.5 5.2 0.00 0.00 0.00 93 1008.5
20260506011908 38 72 3.5 5.2 0.00 0.00 0.00 93 1008.4
20260506011608 38 49 0.0 5.2 0.00 0.00 0.00 93 1008.2
20260506011308 38 62 5.2 5.2 0.00 0.00 0.00 93 1008.3
20260506011008 38 49 0.0 4.3 0.00 0.00 0.00 93 1008.3
20260506010708 38 71 4.3 5.2 0.00 0.00 0.00 93 1008.4
20260506010408 38 87 3.5 5.2 0.00 0.00 0.00 93 1008.3
20260506010108 38 99 0.0 7.8 0.00 0.00 0.00 93 1008.2
20260506005808 38 50 0.0 5.2 0.00 0.00 0.00 93 1008.1
20260506005508 38 49 0.0 5.2 0.00 0.00 0.00 92 1008.1
20260506005208 38 88 3.5 5.2 0.00 0.00 0.00 92 1008.0
20260506004908 38 55 0.0 4.3 0.00 0.00 0.00 92 1008.1
20260506004608 38 54 5.2 5.2 0.00 0.00 0.00 92 1008.2
20260506004308 38 50 0.0 6.1 0.00 0.00 0.00 92 1008.3
20260506004008 38 34 0.0 5.2 0.00 0.00 0.00 92 1008.4
20260506003708 38 22 0.0 5.2 0.00 0.00 0.00 91 1008.2
20260506003408 39 42 0.0 5.2 0.00 0.00 0.00 91 1008.4
20260506003108 39 43 3.5 5.2 0.00 0.00 0.00 91 1008.6
20260506002808 39 42 5.2 5.2 0.00 0.00 0.00 91 1008.5
20260506002508 39 93 3.5 5.2 0.00 0.00 0.00 91 1008.6
20260506002208 39 60 4.3 5.2 0.00 0.00 0.00 91 1008.6
20260506001908 39 101 5.2 5.2 0.00 0.00 0.00 90 1008.6
20260506001608 39 50 0.0 5.2 0.00 0.00 0.00 90 1008.7
20260506001308 39 71 3.5 5.2 0.00 0.00 0.00 90 1008.6
20260506001008 39 45 0.0 5.2 0.00 0.00 0.00 90 1008.8
20260506000708 39 47 0.0 5.2 0.00 0.00 0.00 90 1008.6
20260506000408 40 49 0.0 5.2 0.00 0.00 0.00 90 1008.6
20260506000108 40 76 4.3 5.2 0.00 0.00 0.00 90 1008.8
20260505235808 40 89 3.5 5.2 0.00 0.00 0.00 89 1008.6
20260505235508 40 84 5.2 5.2 0.00 0.00 0.00 89 1008.6
20260505235208 40 57 0.0 4.3 0.00 0.00 0.00 88 1008.7
20260505234908 40 38 0.0 4.3 0.00 0.00 0.00 88 1008.7
20260505234608 40 72 0.0 5.2 0.00 0.00 0.00 87 1008.7
20260505234308 40 70 3.5 5.2 0.00 0.00 0.00 87 1008.8
20260505234008 40 99 3.5 5.2 0.00 0.00 0.00 88 1008.9
20260505233708 40 83 4.3 6.1 0.00 0.00 0.00 87 1008.8
20260505233408 40 87 5.2 6.1 0.00 0.00 0.00 87 1008.8
20260505233108 40 80 4.3 5.2 0.00 0.00 0.00 86 1008.6
20260505232808 40 80 4.3 5.2 0.00 0.00 0.00 85 1008.8
20260505232508 41 85 5.2 5.2 0.00 0.00 0.00 85 1008.6
20260505232208 41 93 0.0 5.2 0.00 0.00 0.00 85 1008.9
20260505231908 41 65 5.2 6.1 0.00 0.00 0.00 85 1008.7
20260505231608 41 86 4.3 6.1 0.00 0.00 0.00 86 1008.8
20260505231308 41 89 3.5 5.2 0.00 0.00 0.00 86 1008.8
20260505231008 41 84 5.2 5.2 0.00 0.00 0.00 86 1008.7
20260505230708 41 130 0.0 5.2 0.00 0.00 0.00 86 1008.9
20260505230408 42 111 0.0 5.2 0.00 0.00 0.00 86 1008.8
20260505230108 42 76 4.3 5.2 0.00 0.00 0.00 86 1008.9
20260505225808 42 54 0.0 4.3 0.00 0.00 0.00 86 1008.8
20260505225508 42 77 0.0 5.2 0.00 0.00 0.00 86 1008.9
20260505225208 42 63 3.5 5.2 0.00 0.00 0.00 87 1009.2
20260505224908 42 80 3.5 5.2 0.00 0.00 0.00 87 1009.0
20260505224608 42 114 5.2 5.2 0.00 0.00 0.00 87 1009.0
20260505224308 43 89 0.0 6.1 0.00 0.00 0.00 86 1009.0
20260505224008 43 76 6.1 7.0 0.00 0.00 0.00 86 1009.1
20260505223708 43 113 0.0 5.2 0.00 0.00 0.00 85 1009.1
20260505223408 43 81 6.1 7.8 0.00 0.00 0.00 86 1009.2
20260505223108 43 111 0.0 4.3 0.00 0.00 0.00 86 1009.0
20260505222808 43 131 0.0 6.1 0.00 0.00 0.00 85 1009.1
20260505222508 43 89 3.5 5.2 0.00 0.00 0.00 85 1009.2
20260505222208 44 98 3.5 5.2 0.00 0.00 0.00 85 1009.1
20260505221908 44 63 0.0 7.0 0.00 0.00 0.00 85 1009.3
20260505221608 44 85 6.1 6.1 0.00 0.00 0.00 85 1009.3
20260505221308 44 127 3.5 5.2 0.00 0.00 0.00 84 1009.0
20260505221008 44 126 3.5 5.2 0.00 0.00 0.00 84 1009.1
20260505220708 44 110 4.3 7.0 0.00 0.00 0.00 83 1008.9
20260505220408 44 99 4.3 9.6 0.00 0.00 0.00 83 1009.2
20260505220108 44 76 5.2 8.7 0.00 0.00 0.00 83 1009.0
20260505215808 45 84 3.5 5.2 0.00 0.00 0.07 83 1009.3
20260505215508 45 84 0.0 5.2 0.00 0.00 0.07 84 1009.2
20260505215208 45 72 0.0 7.0 0.00 0.00 0.07 84 1009.2
20260505214908 45 54 4.3 7.0 0.00 0.00 0.07 84 1009.2
20260505214608 45 59 4.3 5.2 0.00 0.00 0.07 84 1009.1
20260505214308 45 88 5.2 7.0 0.00 0.00 0.07 84 1009.3
20260505214008 45 87 4.3 6.1 0.00 0.00 0.07 84 1009.4
20260505213708 45 44 0.0 7.0 0.00 0.00 0.07 84 1009.2
20260505213408 46 97 0.0 5.2 0.00 0.00 0.07 84 1009.2
20260505213108 45 50 0.0 7.0 0.00 0.00 0.07 85 1009.3
20260505212808 45 107 0.0 4.3 0.00 0.00 0.07 86 1009.2
20260505212508 45 65 5.2 9.6 0.00 0.00 0.07 87 1009.5
20260505212208 45 52 4.3 5.2 0.00 0.00 0.07 87 1009.5
20260505211908 45 94 0.0 5.2 0.00 0.00 0.07 86 1009.6
20260505211608 45 55 0.0 4.3 0.00 0.00 0.07 86 1009.4
20260505211308 46 62 0.0 4.3 0.00 0.00 0.07 86 1009.3
20260505211008 46 89 3.5 5.2 0.00 0.00 0.07 86 1009.4
20260505210708 46 85 6.1 6.1 0.00 0.00 0.07 85 1009.5
20260505210408 46 91 4.3 6.1 0.00 0.00 0.07 85 1009.4
20260505210108 46 101 4.3 5.2 0.00 0.00 0.07 85 1009.5
20260505205808 47 88 5.2 6.1 0.00 0.00 0.07 84 1009.4
20260505205508 47 89 4.3 6.1 0.00 0.00 0.07 84 1009.3
20260505205208 47 89 6.1 6.1 0.00 0.00 0.07 84 1009.5
20260505204908 47 76 5.2 6.1 0.00 0.00 0.07 84 1009.4
20260505204608 47 88 7.8 7.8 0.00 0.00 0.07 83 1009.3
20260505204308 47 40 0.0 7.0 0.00 0.00 0.07 83 1009.4
20260505204008 47 84 0.0 6.1 0.00 0.00 0.07 83 1009.3
20260505203708 47 44 0.0 7.0 0.00 0.00 0.07 83 1009.3
20260505203408 48 75 4.3 7.8 0.00 0.00 0.07 83 1009.3
20260505203108 48 57 4.3 7.0 0.00 0.00 0.07 83 1009.2
20260505202808 48 13 5.2 10.4 0.00 0.00 0.07 84 1009.2
20260505202508 48 86 7.0 7.8 0.00 0.00 0.07 84 1009.3
20260505202208 48 101 9.6 9.6 0.00 0.00 0.07 84 1009.2
20260505201908 48 111 7.8 13.0 0.00 0.00 0.07 84 1009.0
20260505201608 48 75 5.2 8.7 0.00 0.00 0.07 84 1009.4
20260505201308 48 104 9.6 9.6 0.00 0.00 0.07 84 1009.2
20260505201008 48 67 0.0 7.8 0.00 0.00 0.07 84 1009.1
20260505200708 48 72 4.3 15.6 0.00 0.00 0.07 84 1009.2
20260505200408 48 58 4.3 14.8 0.00 0.00 0.07 84 1009.1
20260505200108 48 283 0.0 18.2 0.00 0.00 0.07 84 1009.2
20260505195808 48 20 3.5 7.8 0.00 0.00 0.07 84 1009.1
20260505195508 48 12 0.0 13.0 0.00 0.00 0.07 84 1009.0
20260505195208 48 339 0.0 9.6 0.00 0.00 0.07 84 1009.3
20260505194908 49 70 5.2 13.9 0.00 0.00 0.07 84 1009.2
20260505194608 49 12 8.7 11.3 0.00 0.00 0.07 84 1009.2
20260505194308 49 17 5.2 9.6 0.00 0.00 0.07 84 1009.2
20260505194008 49 278 8.7 10.4 0.00 0.00 0.07 84 1009.1
20260505193708 49 41 7.8 7.8 0.00 0.00 0.07 83 1009.3
20260505193408 49 11 5.2 9.6 0.00 0.00 0.07 83 1009.3
20260505193108 49 15 8.7 8.7 0.00 0.00 0.07 82 1009.2
20260505192808 49 81 4.3 10.4 0.00 0.00 0.07 81 1009.2
20260505192508 49 55 4.3 8.7 0.00 0.00 0.07 81 1009.3
20260505192208 49 34 0.0 12.2 0.00 0.00 0.07 80 1009.3
20260505191908 50 349 8.7 9.6 0.00 0.00 0.07 79 1009.5
20260505191608 50 25 0.0 7.8 0.00 0.00 0.07 79 1009.3
20260505191308 50 108 0.0 10.4 0.00 0.00 0.07 78 1009.3
20260505191008 50 39 5.2 14.8 0.00 0.00 0.07 78 1009.1
20260505190708 50 86 4.3 9.6 0.00 0.00 0.07 77 1009.2
20260505190408 50 14 7.8 8.7 0.00 0.00 0.07 76 1009.0
20260505190108 51 310 0.0 9.6 0.00 0.00 0.07 75 1009.1
20260505185808 51 34 3.5 9.6 0.00 0.00 0.07 74 1009.3
20260505185508 51 5 4.3 7.0 0.00 0.00 0.07 73 1009.2
20260505185208 51 49 5.2 8.7 0.00 0.00 0.07 72 1008.9
20260505184908 51 61 8.7 9.6 0.00 0.00 0.07 71 1009.3
20260505184608 52 75 3.5 7.8 0.00 0.00 0.07 70 1009.1
20260505184308 52 91 4.3 9.6 0.00 0.00 0.07 70 1009.0
20260505184008 52 117 5.2 5.2 0.00 0.00 0.07 69 1008.9
20260505183708 53 118 4.3 10.4 0.00 0.00 0.07 68 1009.0
20260505183408 53 20 7.8 9.6 0.00 0.00 0.07 67 1008.9
20260505183108 53 311 0.0 7.0 0.00 0.00 0.07 67 1008.9
20260505182808 53 116 0.0 11.3 0.00 0.00 0.07 66 1009.0
20260505182508 54 312 3.5 13.0 0.00 0.00 0.07 65 1008.9
20260505182208 54 88 4.3 13.0 0.00 0.00 0.07 65 1008.9
20260505181908 54 25 5.2 11.3 0.00 0.00 0.07 64 1008.9
20260505181608 55 325 16.5 16.5 0.00 0.00 0.07 64 1009.2
20260505181308 55 3 9.6 12.2 0.00 0.00 0.07 63 1009.1
20260505181008 54 47 8.7 12.2 0.00 0.00 0.07 65 1009.2
20260505180708 54 31 5.2 12.2 0.00 0.00 0.07 64 1009.0
20260505180408 54 5 8.7 13.0 0.00 0.00 0.07 65 1009.1
20260505175808 55 9 13.0 15.6 0.00 0.00 0.07 64 1009.2
20260505175508 55 48 6.1 14.8 0.00 0.00 0.07 63 1009.1
20260505175208 56 360 5.2 17.4 0.00 0.00 0.07 62 1009.1
20260505174908 56 85 4.3 16.5 0.00 0.00 0.07 62 1008.9
20260505174608 56 10 13.0 20.0 0.00 0.00 0.07 62 1009.0
20260505174308 56 10 5.2 19.1 0.00 0.00 0.07 61 1009.0
20260505174008 56 88 3.5 11.3 0.00 0.00 0.07 61 1009.1
20260505173708 57 15 9.6 16.5 0.00 0.00 0.07 60 1009.0
20260505173408 57 60 5.2 22.6 0.00 0.00 0.07 59 1009.0
20260505173108 57 8 4.3 22.6 0.00 0.00 0.07 59 1009.2
20260505172808 57 118 7.0 16.5 0.00 0.00 0.07 59 1009.1
20260505172508 57 43 8.7 21.7 0.00 0.00 0.07 58 1009.2
20260505172208 57 347 7.8 20.0 0.00 0.00 0.07 59 1009.0
20260505171908 57 78 8.7 9.6 0.00 0.00 0.07 60 1009.2
20260505171608 57 39 7.0 16.5 0.00 0.00 0.07 61 1009.2
20260505171308 57 63 9.6 14.8 0.00 0.00 0.07 60 1009.2
20260505171008 57 40 5.2 20.0 0.00 0.00 0.07 60 1009.2
20260505170708 57 76 7.0 10.4 0.00 0.00 0.07 59 1009.3
20260505170408 57 80 15.6 20.9 0.00 0.00 0.07 58 1009.1
20260505170108 57 4 13.0 20.9 0.00 0.00 0.07 57 1009.2
20260505165808 57 57 16.5 17.4 0.00 0.00 0.07 58 1009.2
20260505165508 58 60 13.9 14.8 0.00 0.00 0.07 58 1009.1
20260505165208 57 326 6.1 13.9 0.00 0.00 0.07 57 1009.1
20260505164908 57 41 5.2 13.0 0.00 0.00 0.07 58 1009.3
20260505164608 57 118 9.6 14.8 0.00 0.00 0.07 57 1009.2
20260505164308 58 119 10.4 16.5 0.00 0.00 0.07 57 1009.3
20260505164008 58 63 17.4 21.7 0.00 0.00 0.07 56 1009.2
20260505163708 58 292 11.3 18.2 0.00 0.00 0.07 57 1009.2
20260505163408 58 120 3.5 18.2 0.00 0.00 0.07 56 1009.1
20260505163108 58 225 5.2 23.5 0.00 0.00 0.07 57 1009.3
20260505162808 58 21 13.0 16.5 0.00 0.00 0.07 57 1009.2
20260505162508 58 334 6.1 12.2 0.00 0.00 0.07 58 1009.2
20260505162208 58 36 0.0 13.0 0.00 0.00 0.07 58 1009.3
20260505161908 58 115 7.8 20.9 0.00 0.00 0.07 57 1009.3
20260505161608 58 43 7.8 13.0 0.00 0.00 0.07 58 1009.2
20260505161308 58 32 7.0 14.8 0.00 0.00 0.07 60 1009.3
20260505161008 58 18 9.6 22.6 0.00 0.00 0.07 59 1009.2
20260505160708 58 116 13.0 26.9 0.00 0.00 0.07 57 1009.4
20260505160408 58 9 7.8 13.9 0.00 0.00 0.07 58 1009.2